Regional Weather Roundup
Issued by NWS

Home | Current Version | Previous Version | Graphics & Text | Print | Product List | Glossary On
Versions: 1 2 3 4 5 6 7 8 9 10 11 12 13 14 15 16 17 18 19 20 21 22 23 24 25 26 27 28 29 30 31 32 33 34 35 36 37 38 39 40 41 42 43 44 45 46 47 48 49 50
000
ASUS43 KLMK 281802
RWRKY
KENTUCKY REGIONAL WEATHER ROUNDUP
NATIONAL WEATHER SERVICE LOUISVILLE KY
200 PM EDT FRI APR 28 2017

NOTE "FAIR" INDICATES FEW OR NO CLOUDS BELOW 12,000 FEET
WITH NO SIGNIFICANT WEATHER AND/OR OBSTRUCTIONS TO VISIBILITY.

KYZ001>023-026-027-061>063-070>075-281900-
WESTERN AND SOUTH CENTRAL KENTUCKY

CITY           SKY/WX    TMP DP  RH WIND       PRES   REMARKS
PADUCAH        PTSUNNY   73  60  63 E10       29.78F
HENDERSON      CLOUDY    68  57  68 SE9       29.87F
OWENSBORO      CLOUDY    71  58  63 SE10      29.88F
HOPKINSVILLE   PTSUNNY   77  65  67 S14       29.85F
BOWLING GREEN  CLOUDY    78  65  63 SW17G23   29.91S
GLASGOW        NOT AVBL
$$

KYZ024-025-028>034-038-045-046-053-281900-
NORTH CENTRAL KENTUCKY

CITY           SKY/WX    TMP DP  RH WIND       PRES   REMARKS
LOUISVILLE/SDF CLOUDY    73  57  57 E6        29.92F
LOUISVILLE/LOU CLOUDY    72  57  59 SE6       29.93F
FORT KNOX      CLOUDY    71  57  61 NE5       29.91F
$$

KYZ035>037-039>044-047>052-055>060-089>105-281900-
NORTHEAST KENTUCKY

CITY           SKY/WX    TMP DP  RH WIND       PRES   REMARKS
LEXINGTON      MOSUNNY   74  55  51 S9        29.97F
COVINGTON      CLOUDY    67  53  61 SE8       29.98F
FRANKFORT      MOSUNNY   74  55  51 S5        29.96S
$$

KYZ054-064>069-076>088-106>120-281900-
SOUTHEAST KENTUCKY

CITY           SKY/WX    TMP DP  RH WIND       PRES   REMARKS
JACKSON        MOSUNNY   79  57  46 VRB3      29.99F
LONDON         SUNNY     78  56  46 S8        29.97F
SOMERSET       NOT AVBL
MIDDLESBORO    MOSUNNY   80  61  51 SW7       30.00F
MONTICELLO     MOCLDY    82  63  52 VRB6      29.95F
$$





USA.gov is the U.S. government's official web portal to all federal, state and local government web resources and services.